Weather History for KBIS - December, 2012

Change the Weather History Date:

Thursday, December 6, 2012

  Actual Average Record
Temperature  
Mean Temperature 33 °F 19 °F  
Max Temperature 42 °F 29 °F 66 °F (1939)
Min Temperature 23 °F 9 °F -28 °F (1950)
Degree Days  
Heating Degree Days 32 46  
Month to date heating degree days 198 270  
Since 1 July heating degree days 2195 2256  
Cooling Degree Days 0 0  
Month to date cooling degree days 0 0  
Year to date cooling degree days 599 520  
Moisture  
Dew Point 23 °F    
Average Humidity 63    
Maximum Humidity 81    
Minimum Humidity 44    
Precipitation  
Precipitation 0.00 in 0.02 in 0.59 in (1883)
Month to date precipitation 0.03 0.10  
Year to date precipitation 14.30 17.46  
Snow  
Snow 0.00 in 0.30 in 5.40 in (1901)
Month to date snowfall 0.0 1.7  
Since 1 July snowfall 10.5 12.9  
Snow Depth T in    
Sea Level Pressure  
Sea Level Pressure 29.98 in    
Wind  
Wind Speed 9 mph (WNW)    
Max Wind Speed 22 mph    
Max Gust Speed 31 mph    
Visibility 10 miles    
Events      
T = Trace of Precipitation, MM = Missing Value Source: NWS Daily Summary

Daily Weather History Graph

Daily Weather History Graph

Search for Another Location

Airport or City:

Trip Planner

Search our weather history database for the weather conditions in past years. The results will help you decide how hot, cold, wet, or windy it might be!

Date:

Astronomy

Dec. 06, 2012 Rise Set
Actual Time 8:13 AM CST 4:55 PM CST
Civil Twilight 7:38 AM CST 5:29 PM CST
Nautical Twilight 7:00 AM CST 6:08 PM CST
Astronomical Twilight 6:23 AM CST 6:44 PM CST
Moon 12:06 AM CST (12/6) 12:45 PM CST (12/6)
Length of Visible Light 9h 51m
Length of Day
8h 41m
Waning Gibbous, 49% of the Moon is Illuminated
Dec 6
Waning Gibbous
Dec 13
New
Dec 19
First Quarter
Dec 28
Full
Jan 4
Last Quarter

Hourly Weather History & Observations

Time (CST) Temp. Windchill Dew Point Humidity Pressure Visibility Wind Dir Wind Speed Gust Speed Precip Events Conditions
12:52 AM 39.0 °F 30.6 °F 26.1 °F 60% 29.84 in 10.0 mi West 15.0 mph - N/A   Clear
1:52 AM 37.0 °F 27.4 °F 26.1 °F 65% 29.85 in 10.0 mi West 17.3 mph 24.2 mph N/A   Clear
2:52 AM 36.0 °F 27.1 °F 26.1 °F 67% 29.87 in 10.0 mi WNW 13.8 mph - N/A   Clear
3:39 AM 35.6 °F 25.9 °F 26.6 °F 70% 29.86 in 10.0 mi West 16.1 mph - N/A   Overcast
3:52 AM 35.1 °F 25.9 °F 26.1 °F 70% 29.92 in 10.0 mi West 13.8 mph - N/A   Overcast
4:52 AM 37.0 °F 28.1 °F 28.0 °F 70% 29.92 in 10.0 mi WNW 15.0 mph 26.5 mph N/A   Overcast
5:47 AM 33.8 °F 25.3 °F 26.6 °F 75% 29.88 in 10.0 mi West 11.5 mph - N/A   Mostly Cloudy
5:52 AM 34.0 °F 25.5 °F 27.0 °F 75% 29.94 in 10.0 mi West 11.5 mph - N/A   Scattered Clouds
6:52 AM 34.0 °F 26.0 °F 27.0 °F 75% 29.97 in 10.0 mi NW 10.4 mph - N/A   Scattered Clouds
7:52 AM 30.9 °F 24.3 °F 25.0 °F 79% 29.99 in 10.0 mi NNW 6.9 mph - N/A   Clear
8:52 AM 30.0 °F 23.2 °F 25.0 °F 82% 30.01 in 10.0 mi West 6.9 mph - N/A   Clear
9:52 AM 32.0 °F 24.8 °F 25.0 °F 75% 30.04 in 10.0 mi WNW 8.1 mph - N/A   Clear
10:20 AM 32.0 °F 22.1 °F 24.8 °F 75% 29.99 in 10.0 mi WNW 13.8 mph - N/A   Mostly Cloudy
10:52 AM 32.0 °F 22.1 °F 24.1 °F 73% 30.05 in 7.0 mi NW 13.8 mph 20.7 mph N/A   Overcast
11:52 AM 34.0 °F 25.5 °F 24.1 °F 67% 30.04 in 9.0 mi WNW 11.5 mph - N/A   Overcast
12:20 PM 33.8 °F 25.8 °F 23.0 °F 65% 29.99 in 8.0 mi NW 10.4 mph - N/A   Partly Cloudy
12:52 PM 35.1 °F 27.4 °F 24.1 °F 64% 30.02 in 10.0 mi WNW 10.4 mph - N/A   Clear
1:52 PM 37.9 °F 30.5 °F 23.0 °F 55% 30.02 in 10.0 mi West 11.5 mph - N/A   Clear
2:52 PM 39.9 °F 33.9 °F 21.0 °F 47% 30.00 in 10.0 mi WNW 9.2 mph - N/A   Clear
3:52 PM 39.0 °F 33.4 °F 19.9 °F 46% 30.01 in 10.0 mi WNW 8.1 mph - N/A   Clear
4:52 PM 36.0 °F 28.5 °F 19.9 °F 52% 30.02 in 10.0 mi WNW 10.4 mph - N/A   Clear
5:52 PM 30.0 °F - 19.0 °F 64% 30.01 in 10.0 mi Calm Calm - N/A   Clear
6:52 PM 26.1 °F - 18.0 °F 71% 30.02 in 10.0 mi Calm Calm - N/A   Clear
7:52 PM 23.0 °F - 18.0 °F 81% 30.03 in 10.0 mi Calm Calm - N/A   Clear
8:52 PM 24.1 °F - 19.0 °F 81% 30.02 in 10.0 mi Calm Calm - N/A   Clear
9:52 PM 24.1 °F - 19.9 °F 84% 30.03 in 10.0 mi Calm Calm - N/A   Partly Cloudy
10:52 PM 24.1 °F 17.0 °F 19.0 °F 81% 30.02 in 10.0 mi NE 5.8 mph - N/A   Mostly Cloudy
11:52 PM 24.1 °F 17.0 °F 19.9 °F 84% 30.01 in 10.0 mi ENE 5.8 mph - N/A   Mostly Cloudy